When you browse on this site, cookies collect data to enhance your experience and personalize the content and advertising you see.
Visit our Privacy Policy to learn more. By continuing to use the site, you agree to this use of cookies and data.
  • In Hungary
  • List of Countries
  • For 7 days
  • Water Temperature
  • Satellite Maps
  • Weather Map
  • News
  • Weather Widgets
  • user-avatar
    Login

    Hourly Weather Pitea

    Today, 17 June, Monday

    Time Temperature Precipitation Wind Pressure Humidity
    00:00 +18°C° 0 mm 2 mps 755 mmHg 69%
    01:00 +17°C° 0 mm 2 mps 755 mmHg 71%
    02:00 +18°C° 0 mm 2 mps 755 mmHg 70%
    03:00 +18°C° 0 mm 2 mps 755 mmHg 69%
    04:00 +19°C° 0 mm 1 mps 755 mmHg 69%
    05:00 +21°C° 0 mm 1 mps 754 mmHg 62%
    06:00 +23°C° 0 mm 1 mps 754 mmHg 55%
    07:00 +25°C° 0 mm 1 mps 754 mmHg 48%
    08:00 +26°C° 0 mm 1 mps 754 mmHg 46%
    09:00 +26°C° 0 mm 2 mps 754 mmHg 44%
    10:00 +27°C° 0 mm 2 mps 754 mmHg 42%
    11:00 +25°C° 0.4 mm 2 mps 754 mmHg 49%
    12:00 +23°C° 0.4 mm 2 mps 753 mmHg 56%
    13:00 +21°C° 0.4 mm 2 mps 753 mmHg 63%
    14:00 +21°C° 0.6 mm 2 mps 753 mmHg 66%
    15:00 +21°C° 0.6 mm 2 mps 753 mmHg 69%
    16:00 +20°C° 0.6 mm 2 mps 753 mmHg 72%
    17:00 +19°C° 2.3 mm 3 mps 753 mmHg 79%
    18:00 +18°C° 2.3 mm 3 mps 753 mmHg 86%
    19:00 +17°C° 2.3 mm 4 mps 752 mmHg 93%
    20:00 +16°C° 0.4 mm 3 mps 753 mmHg 92%
    21:00 +16°C° 0.4 mm 3 mps 753 mmHg 92%
    22:00 +16°C° 0.4 mm 2 mps 753 mmHg 91%
    23:00 +15°C° 0 mm 2 mps 753 mmHg 91%

    Tomorrow, 18 June, Tuesday

    Time Temperature Precipitation Wind Pressure Humidity
    00:00 +15°C° 0 mm 2 mps 753 mmHg 91%
    01:00 +15°C° 0 mm 2 mps 753 mmHg 91%
    02:00 +15°C° 0 mm 2 mps 753 mmHg 89%
    03:00 +15°C° 0 mm 2 mps 753 mmHg 88%
    04:00 +15°C° 0 mm 2 mps 753 mmHg 86%
    05:00 +17°C° 0 mm 2 mps 753 mmHg 80%
    06:00 +18°C° 0 mm 2 mps 753 mmHg 74%
    07:00 +19°C° 0 mm 2 mps 753 mmHg 67%
    08:00 +20°C° 0 mm 2 mps 753 mmHg 59%
    09:00 +22°C° 0 mm 3 mps 753 mmHg 51%
    10:00 +24°C° 0 mm 3 mps 753 mmHg 43%
    11:00 +23°C° 0 mm 4 mps 753 mmHg 42%
    12:00 +23°C° 0 mm 4 mps 753 mmHg 40%
    13:00 +25°C° 0 mm 5 mps 752 mmHg 38%
    14:00 +22°C° 0.1 mm 5 mps 752 mmHg 45%
    15:00 +21°C° 0.1 mm 5 mps 752 mmHg 53%
    16:00 +20°C° 0.1 mm 5 mps 752 mmHg 61%
    17:00 +19°C° 0.2 mm 4 mps 752 mmHg 62%
    18:00 +19°C° 0.2 mm 4 mps 752 mmHg 62%
    19:00 +19°C° 0.2 mm 3 mps 752 mmHg 63%
    20:00 +17°C° 0 mm 3 mps 753 mmHg 64%
    21:00 +16°C° 0 mm 3 mps 753 mmHg 66%
    22:00 +14°C° 0 mm 3 mps 754 mmHg 68%
    23:00 +13°C° 0 mm 3 mps 754 mmHg 70%

    Day after tomorrow, 19 June, Wednesday

    Time Temperature Precipitation Wind Pressure Humidity
    00:00 +13°C° 0 mm 2 mps 754 mmHg 72%
    01:00 +12°C° 0 mm 2 mps 754 mmHg 74%
    02:00 +13°C° 0 mm 2 mps 754 mmHg 73%
    03:00 +13°C° 0 mm 2 mps 754 mmHg 72%
    04:00 +14°C° 0 mm 2 mps 754 mmHg 72%
    05:00 +15°C° 0 mm 2 mps 754 mmHg 68%
    06:00 +16°C° 0 mm 2 mps 754 mmHg 65%
    07:00 +17°C° 0 mm 2 mps 754 mmHg 62%
    08:00 +17°C° 0.1 mm 2 mps 754 mmHg 65%
    09:00 +16°C° 0.1 mm 2 mps 754 mmHg 68%
    10:00 +16°C° 0.1 mm 2 mps 754 mmHg 72%
    11:00 +17°C° 0.1 mm 2 mps 754 mmHg 67%
    12:00 +18°C° 0.1 mm 2 mps 754 mmHg 63%
    13:00 +20°C° 0.1 mm 1 mps 754 mmHg 58%
    14:00 +20°C° 0.3 mm 1 mps 754 mmHg 60%
    15:00 +20°C° 0.3 mm 1 mps 754 mmHg 61%
    16:00 +20°C° 0.3 mm 1 mps 754 mmHg 63%
    17:00 +20°C° 0.1 mm 1 mps 754 mmHg 65%
    18:00 +19°C° 0.1 mm 1 mps 755 mmHg 68%
    19:00 +19°C° 0.1 mm 1 mps 755 mmHg 71%
    20:00 +18°C° 0 mm 1 mps 755 mmHg 72%
    21:00 +15°C° 0 mm 2 mps 756 mmHg 74%
    22:00 +14°C° 0 mm 2 mps 756 mmHg 76%
    23:00 +13°C° 0 mm 2 mps 757 mmHg 76%

    20 June, Thursday

    Time Temperature Precipitation Wind Pressure Humidity
    00:00 +12°C° 0 mm 2 mps 757 mmHg 75%
    01:00 +12°C° 0 mm 2 mps 757 mmHg 75%
    02:00 +12°C° 0 mm 2 mps 757 mmHg 73%
    03:00 +13°C° 0 mm 2 mps 757 mmHg 72%
    04:00 +14°C° 0 mm 1 mps 758 mmHg 70%
    05:00 +15°C° 0 mm 1 mps 757 mmHg 63%
    06:00 +18°C° 0 mm 1 mps 757 mmHg 55%
    07:00 +18°C° 0 mm 0 mps 757 mmHg 47%
    08:00 +20°C° 0 mm 1 mps 757 mmHg 46%
    09:00 +19°C° 0 mm 2 mps 757 mmHg 45%
    10:00 +20°C° 0 mm 3 mps 757 mmHg 44%
    11:00 +20°C° 0 mm 3 mps 757 mmHg 44%
    12:00 +20°C° 0 mm 3 mps 757 mmHg 45%
    13:00 +20°C° 0 mm 3 mps 756 mmHg 45%
    14:00 +18°C° 0.1 mm 3 mps 756 mmHg 54%
    15:00 +16°C° 0.1 mm 3 mps 756 mmHg 64%
    16:00 +13°C° 0.1 mm 3 mps 755 mmHg 73%
    17:00 +13°C° 0.2 mm 3 mps 755 mmHg 77%
    18:00 +13°C° 0.2 mm 3 mps 755 mmHg 81%
    19:00 +12°C° 0.2 mm 3 mps 754 mmHg 84%
    20:00 +12°C° 0.3 mm 3 mps 754 mmHg 88%
    21:00 +13°C° 0.3 mm 2 mps 753 mmHg 92%
    22:00 +13°C° 0.3 mm 2 mps 753 mmHg 95%
    23:00 +14°C° 0.5 mm 2 mps 753 mmHg 96%

    21 June, Friday

    Time Temperature Precipitation Wind Pressure Humidity
    00:00 +13°C° 0.5 mm 3 mps 752 mmHg 97%
    01:00 +13°C° 0.5 mm 3 mps 752 mmHg 98%
    02:00 +14°C° 0.4 mm 3 mps 751 mmHg 98%
    03:00 +14°C° 0.4 mm 3 mps 751 mmHg 97%
    04:00 +14°C° 0.4 mm 4 mps 750 mmHg 97%
    05:00 +14°C° 0 mm 4 mps 750 mmHg 96%
    06:00 +15°C° 0 mm 4 mps 750 mmHg 96%
    07:00 +15°C° 0 mm 4 mps 750 mmHg 95%
    08:00 +17°C° 0 mm 4 mps 750 mmHg 89%
    09:00 +17°C° 0 mm 5 mps 750 mmHg 82%
    10:00 +20°C° 0 mm 5 mps 750 mmHg 76%
    11:00 +21°C° 0.1 mm 5 mps 751 mmHg 66%
    12:00 +22°C° 0.1 mm 5 mps 751 mmHg 57%
    13:00 +24°C° 0.1 mm 6 mps 751 mmHg 47%
    14:00 +24°C° 0 mm 6 mps 751 mmHg 45%
    15:00 +24°C° 0 mm 6 mps 751 mmHg 43%
    16:00 +25°C° 0 mm 5 mps 752 mmHg 41%
    17:00 +23°C° 0 mm 5 mps 752 mmHg 43%
    18:00 +22°C° 0 mm 5 mps 752 mmHg 44%
    19:00 +21°C° 0 mm 4 mps 753 mmHg 45%
    20:00 +19°C° 0 mm 4 mps 753 mmHg 49%
    21:00 +17°C° 0 mm 4 mps 753 mmHg 53%
    22:00 +14°C° 0 mm 3 mps 754 mmHg 57%
    23:00 +13°C° 0 mm 3 mps 754 mmHg 60%

    22 June, Saturday

    Time Temperature Precipitation Wind Pressure Humidity
    00:00 +12°C° 0 mm 3 mps 755 mmHg 63%
    01:00 +12°C° 0 mm 2 mps 755 mmHg 67%
    02:00 +13°C° 0 mm 2 mps 755 mmHg 67%
    03:00 +14°C° 0 mm 1 mps 755 mmHg 67%
    04:00 +14°C° 0 mm 1 mps 755 mmHg 67%
    05:00 +16°C° 0 mm 1 mps 756 mmHg 62%
    06:00 +18°C° 0 mm 1 mps 756 mmHg 57%
    07:00 +20°C° 0 mm 1 mps 756 mmHg 52%
    08:00 +20°C° 0 mm 1 mps 756 mmHg 51%
    09:00 +19°C° 0 mm 2 mps 756 mmHg 51%
    10:00 +19°C° 0 mm 3 mps 756 mmHg 50%
    11:00 +19°C° 0.1 mm 3 mps 756 mmHg 52%
    12:00 +19°C° 0.1 mm 3 mps 755 mmHg 54%
    13:00 +19°C° 0.1 mm 3 mps 755 mmHg 56%
    14:00 +18°C° 0.6 mm 4 mps 755 mmHg 65%
    15:00 +17°C° 0.6 mm 4 mps 755 mmHg 73%
    16:00 +14°C° 0.6 mm 5 mps 755 mmHg 82%
    17:00 +15°C° 0.4 mm 4 mps 755 mmHg 82%
    18:00 +16°C° 0.4 mm 3 mps 755 mmHg 82%
    19:00 +16°C° 0.4 mm 2 mps 755 mmHg 82%
    20:00 +14°C° 0 mm 3 mps 756 mmHg 85%
    21:00 +13°C° 0 mm 4 mps 756 mmHg 87%
    22:00 +12°C° 0 mm 4 mps 756 mmHg 90%
    23:00 +10°C° 0 mm 5 mps 757 mmHg 88%
    Show more